• In Deutschland
  • Länderverzeichnis
  • Für 7 Tage
  • Wassertemperatur
  • Satellitenkarten
  • Wetterkarte
  • Widgets
  • user-avatar
    Anmelden

    Stündliche Wetter Naschawar

    Heute, 26 September, Dienstag

    Zeit Temperatur Niederschläge Wind Luftdruck Luftfeuchtigkeit
    00:00 +31°C° 0 mm 1 m/S 727 mmHg 29%
    01:00 +30°C° 0 mm 1 m/S 726 mmHg 30%
    02:00 +29°C° 0 mm 1 m/S 726 mmHg 31%
    03:00 +29°C° 0 mm 1 m/S 726 mmHg 30%
    04:00 +28°C° 0 mm 1 m/S 726 mmHg 30%
    05:00 +28°C° 0 mm 1 m/S 726 mmHg 29%
    06:00 +29°C° 0 mm 1 m/S 727 mmHg 26%
    07:00 +30°C° 0 mm 1 m/S 727 mmHg 24%
    08:00 +31°C° 0 mm 1 m/S 728 mmHg 21%
    09:00 +33°C° 0 mm 1 m/S 728 mmHg 18%
    10:00 +34°C° 0 mm 1 m/S 728 mmHg 15%
    11:00 +36°C° 0 mm 1 m/S 727 mmHg 12%
    12:00 +37°C° 0 mm 1 m/S 727 mmHg 11%
    13:00 +39°C° 0 mm 1 m/S 727 mmHg 10%
    14:00 +39°C° 0 mm 1 m/S 727 mmHg 10%
    15:00 +39°C° 0 mm 1 m/S 726 mmHg 11%
    16:00 +39°C° 0 mm 1 m/S 726 mmHg 11%
    17:00 +39°C° 0 mm 2 m/S 726 mmHg 13%
    18:00 +37°C° 0 mm 2 m/S 727 mmHg 14%
    19:00 +36°C° 0 mm 2 m/S 727 mmHg 16%
    20:00 +33°C° 0 mm 1 m/S 727 mmHg 18%
    21:00 +33°C° 0 mm 1 m/S 727 mmHg 19%
    22:00 +32°C° 0 mm 1 m/S 727 mmHg 19%
    23:00 +31°C° 0 mm 1 m/S 727 mmHg 20%

    Morgen, 27 September, Mittwoch

    Zeit Temperatur Niederschläge Wind Luftdruck Luftfeuchtigkeit
    00:00 +31°C° 0 mm 1 m/S 727 mmHg 21%
    01:00 +30°C° 0 mm 1 m/S 727 mmHg 22%
    02:00 +30°C° 0 mm 1 m/S 727 mmHg 23%
    03:00 +29°C° 0 mm 1 m/S 727 mmHg 23%
    04:00 +29°C° 0 mm 1 m/S 727 mmHg 23%
    05:00 +29°C° 0 mm 1 m/S 728 mmHg 24%
    06:00 +29°C° 0 mm 1 m/S 728 mmHg 23%
    07:00 +30°C° 0 mm 1 m/S 728 mmHg 21%
    08:00 +31°C° 0 mm 1 m/S 728 mmHg 20%
    09:00 +34°C° 0 mm 2 m/S 729 mmHg 17%
    10:00 +35°C° 0 mm 2 m/S 729 mmHg 15%
    11:00 +37°C° 0 mm 2 m/S 729 mmHg 12%
    12:00 +38°C° 0 mm 2 m/S 728 mmHg 12%
    13:00 +39°C° 0 mm 1 m/S 728 mmHg 11%
    14:00 +40°C° 0 mm 1 m/S 727 mmHg 10%
    15:00 +39°C° 0 mm 1 m/S 727 mmHg 11%
    16:00 +39°C° 0 mm 1 m/S 727 mmHg 11%
    17:00 +39°C° 0 mm 1 m/S 727 mmHg 12%
    18:00 +36°C° 0 mm 1 m/S 727 mmHg 14%
    19:00 +35°C° 0 mm 1 m/S 727 mmHg 16%
    20:00 +33°C° 0 mm 1 m/S 727 mmHg 18%
    21:00 +33°C° 0 mm 1 m/S 727 mmHg 18%
    22:00 +32°C° 0 mm 1 m/S 727 mmHg 18%
    23:00 +31°C° 0 mm 1 m/S 727 mmHg 18%

    übermorgen, 28 September, Donnerstag

    Zeit Temperatur Niederschläge Wind Luftdruck Luftfeuchtigkeit
    00:00 +31°C° 0 mm 1 m/S 727 mmHg 19%
    01:00 +30°C° 0 mm 1 m/S 727 mmHg 19%
    02:00 +29°C° 0 mm 1 m/S 726 mmHg 20%
    03:00 +29°C° 0 mm 1 m/S 726 mmHg 20%
    04:00 +28°C° 0 mm 1 m/S 726 mmHg 20%
    05:00 +28°C° 0 mm 1 m/S 726 mmHg 20%
    06:00 +29°C° 0 mm 1 m/S 727 mmHg 19%
    07:00 +30°C° 0 mm 1 m/S 727 mmHg 18%
    08:00 +31°C° 0 mm 1 m/S 727 mmHg 16%
    09:00 +33°C° 0 mm 1 m/S 727 mmHg 14%
    10:00 +34°C° 0 mm 1 m/S 727 mmHg 12%
    11:00 +37°C° 0 mm 2 m/S 727 mmHg 10%
    12:00 +37°C° 0 mm 1 m/S 727 mmHg 9%
    13:00 +39°C° 0 mm 1 m/S 726 mmHg 9%
    14:00 +40°C° 0 mm 1 m/S 726 mmHg 8%
    15:00 +39°C° 0 mm 1 m/S 726 mmHg 9%
    16:00 +39°C° 0 mm 2 m/S 726 mmHg 10%
    17:00 +39°C° 0 mm 2 m/S 725 mmHg 11%
    18:00 +36°C° 0 mm 1 m/S 726 mmHg 12%
    19:00 +35°C° 0 mm 1 m/S 726 mmHg 14%
    20:00 +33°C° 0 mm 1 m/S 726 mmHg 16%
    21:00 +32°C° 0 mm 1 m/S 726 mmHg 16%
    22:00 +31°C° 0 mm 1 m/S 726 mmHg 17%
    23:00 +31°C° 0 mm 1 m/S 727 mmHg 17%

    29 September, Freitag

    Zeit Temperatur Niederschläge Wind Luftdruck Luftfeuchtigkeit
    00:00 +30°C° 0 mm 1 m/S 726 mmHg 18%
    01:00 +30°C° 0 mm 1 m/S 726 mmHg 18%
    02:00 +29°C° 0 mm 1 m/S 726 mmHg 19%
    03:00 +29°C° 0 mm 1 m/S 726 mmHg 19%
    04:00 +28°C° 0 mm 1 m/S 726 mmHg 20%
    05:00 +28°C° 0 mm 1 m/S 726 mmHg 20%
    06:00 +29°C° 0 mm 1 m/S 726 mmHg 19%
    07:00 +30°C° 0 mm 1 m/S 727 mmHg 17%
    08:00 +31°C° 0 mm 1 m/S 727 mmHg 16%
    09:00 +33°C° 0 mm 1 m/S 727 mmHg 14%
    10:00 +34°C° 0 mm 1 m/S 727 mmHg 12%
    11:00 +36°C° 0 mm 1 m/S 727 mmHg 10%
    12:00 +37°C° 0 mm 1 m/S 727 mmHg 9%
    13:00 +37°C° 0 mm 1 m/S 726 mmHg 9%
    14:00 +39°C° 0 mm 1 m/S 726 mmHg 8%
    15:00 +39°C° 0 mm 1 m/S 726 mmHg 9%
    16:00 +39°C° 0 mm 2 m/S 725 mmHg 9%
    17:00 +39°C° 0 mm 2 m/S 725 mmHg 10%
    18:00 +36°C° 0 mm 1 m/S 726 mmHg 12%
    19:00 +34°C° 0 mm 1 m/S 726 mmHg 15%
    20:00 +32°C° 0 mm 1 m/S 727 mmHg 17%
    21:00 +32°C° 0 mm 1 m/S 727 mmHg 17%
    22:00 +31°C° 0 mm 1 m/S 727 mmHg 17%
    23:00 +31°C° 0 mm 1 m/S 727 mmHg 17%

    30 September, Samstag

    Zeit Temperatur Niederschläge Wind Luftdruck Luftfeuchtigkeit
    00:00 +30°C° 0 mm 1 m/S 727 mmHg 17%
    01:00 +29°C° 0 mm 1 m/S 727 mmHg 18%
    02:00 +29°C° 0 mm 1 m/S 727 mmHg 18%
    03:00 +28°C° 0 mm 1 m/S 727 mmHg 19%
    04:00 +28°C° 0 mm 1 m/S 727 mmHg 19%
    05:00 +28°C° 0 mm 1 m/S 727 mmHg 19%
    06:00 +29°C° 0 mm 1 m/S 727 mmHg 18%
    07:00 +30°C° 0 mm 2 m/S 728 mmHg 16%
    08:00 +31°C° 0 mm 2 m/S 728 mmHg 15%
    09:00 +32°C° 0 mm 2 m/S 728 mmHg 13%
    10:00 +35°C° 0 mm 2 m/S 729 mmHg 11%
    11:00 +37°C° 0 mm 2 m/S 729 mmHg 9%
    12:00 +38°C° 0 mm 2 m/S 728 mmHg 9%
    13:00 +39°C° 0 mm 2 m/S 728 mmHg 8%
    14:00 +39°C° 0 mm 1 m/S 727 mmHg 8%
    15:00 +39°C° 0 mm 1 m/S 727 mmHg 8%
    16:00 +39°C° 0 mm 1 m/S 727 mmHg 9%
    17:00 +39°C° 0 mm 1 m/S 727 mmHg 10%
    18:00 +36°C° 0 mm 1 m/S 727 mmHg 11%
    19:00 +34°C° 0 mm 1 m/S 727 mmHg 13%
    20:00 +30°C° 0 mm 0 m/S 727 mmHg 15%
    21:00 +32°C° 0 mm 1 m/S 727 mmHg 15%
    22:00 +31°C° 0 mm 1 m/S 727 mmHg 15%
    23:00 +31°C° 0 mm 1 m/S 727 mmHg 15%

    1 Oktober, Sonntag

    Zeit Temperatur Niederschläge Wind Luftdruck Luftfeuchtigkeit
    00:00 +30°C° 0 mm 1 m/S 727 mmHg 16%
    01:00 +29°C° 0 mm 1 m/S 727 mmHg 16%
    02:00 +29°C° 0 mm 1 m/S 727 mmHg 17%
    03:00 +28°C° 0 mm 1 m/S 727 mmHg 17%
    04:00 +28°C° 0 mm 1 m/S 727 mmHg 17%
    05:00 +27°C° 0 mm 1 m/S 727 mmHg 17%
    06:00 +29°C° 0 mm 1 m/S 727 mmHg 16%
    07:00 +30°C° 0 mm 1 m/S 727 mmHg 15%
    08:00 +31°C° 0 mm 1 m/S 728 mmHg 14%
    09:00 +33°C° 0 mm 1 m/S 728 mmHg 12%
    10:00 +35°C° 0 mm 2 m/S 728 mmHg 10%
    11:00 +37°C° 0 mm 2 m/S 728 mmHg 8%
    12:00 +38°C° 0 mm 2 m/S 727 mmHg 8%
    13:00 +39°C° 0 mm 1 m/S 727 mmHg 7%
    14:00 +40°C° 0 mm 1 m/S 726 mmHg 7%
    15:00 +39°C° 0 mm 1 m/S 726 mmHg 8%
    16:00 +39°C° 0 mm 1 m/S 726 mmHg 8%
    17:00 +39°C° 0 mm 1 m/S 726 mmHg 9%
    18:00 +36°C° 0 mm 1 m/S 726 mmHg 11%
    19:00 +34°C° 0 mm 1 m/S 726 mmHg 13%
    20:00 +32°C° 0 mm 1 m/S 726 mmHg 15%
    21:00 +32°C° 0 mm 1 m/S 726 mmHg 15%
    22:00 +31°C° 0 mm 1 m/S 726 mmHg 15%
    23:00 +30°C° 0 mm 1 m/S 726 mmHg 15%
    Mehr zeigen